www.pogodaiklimat.ru

Погода и климат >> Архив погоды >> Канада >> Muskoka Awos


ПОГОДА в Muskoka Awos

  • Прогноз погоды в Muskoka Awos
  • Монитор погоды в Muskoka Awos
  • Климат города

АРХИВ ПОГОДЫ в Muskoka Awos

Время (UTC), дата Ветер
(напр.,м/с)
 
Видим.   Явления Облачность Т
(С)
Тd
(С)
f
(%)
Тe
(С)
Тes
(С)
Комфортность P
(гПа)
Po
(гПа)
Тmin
(С)
Tmax
(С)
R
(мм)
R24
(мм)
S
(см)
03 11.10 ЮВ 4 4800 м слаб. дождь {осадки} 10/10 1000 м
[]
+19.3 +18.3 94 +21 +21 комфорт 1004.7 971.7
06 11.10 Ю 4 16 км {осадки} 10/10 600 м
[]
+19.7 +17.9 89 +22 +22 комфорт 1001.3 968.5 +16.3 +26.6 2 21
09 11.10 Ю 4 16 км {осадки} 10/10 1000 м
[]
+19.5 +18.7 95 +22 +22 комфорт 1000.5 967.7
12 11.10 З 3 16 км {осадки} 10/10 300 м
[]
+18.5 +17.2 92 +19 +19 1000.7 967.7 +18.5 +26.6 3
15 11.10 З 5 16 км {осадки} 10/10 300 м
[]
+15.5 +12.0 80 +14 +14 1001.9 968.8
18 11.10 З 7 16 км 10/10 600 м
[]
+13.3 +8.3 72 +11 +11 1002.6 969.4 +13.2 +20.2
21 11.10 З 5 16 км 10/10 600 м
[]
+11.5 +6.5 71 +9 +9 1003.4 970.1
00 12.10 З 6 16 км 10/10 600 м
[]
+10.4 +5.4 71 +7 +7 1004.4 971.0 +10.4 +18.5
03 12.10 З 6 16 км слаб. дождь 10/10 300 м
[]
+7.8 +5.6 86 +4 +4 1005.4 971.8
06 12.10 З 6 16 км 9/9 300 м
[]
+6.3 +3.8 84 +2 +2 1005.9 972.2 +6.3 +20.2 0.5 19
09 12.10 З 6 16 км слаб. дождь {осадки} 10/10 600 м
[]
+4.9 +1.0 76 0 0 1007.1 973.2
12 12.10 СЗ 6 16 км 10/10 600 м
[]
+5.4 -0.1 68 +1 +1 1008.0 974.1 +4.6 +20.2
15 12.10 З 7 16 км 10/10 1000 м
[]
+7.4 -0.5 57 +3 +3 1008.1 974.1
18 12.10 З 7 16 км 9/9 1000 м
[]
+7.9 -1.4 52 +4 +4 1007.6 973.6 +4.6 +8.7
21 12.10 З 6 16 км 9/9 1000 м
[]
+6.5 -1.1 58 +2 +2 1007.3 973.2
00 13.10 ЮЗ 3 16 км 10/10 600 м
[]
+5.0 +1.4 78 +2 +2 1008.1 974.0 +4.6 +8.7
03 13.10 СЗ 4 16 км {осадки} 9/9 300 м
[]
+3.9 +2.1 88 -0 -0 1007.8 973.7
06 13.10 З 3 16 км {осадки} 10/10 600 м
[]
+4.2 +1.3 81 +1 +1 1007.7 973.7 +3.8 +8.7 0.3 181
09 13.10 С 1 16 км {осадки} 10/10 1000 м
[]
+0.7 +0.4 98 0 0 1008.7 974.5
12 13.10 СЗ 2 16 км 10/10 1500 м
[]
+1.1 -0.5 89 -2 -2 1010.9 976.5 +0.6 +8.7 0.5
15 13.10 СЗ 3 16 км 10/10 1000 м
[]
+4.3 -1.9 64 +1 +1 1012.6 978.3
18 13.10 ЮЗ 4 16 км 10/10 600 м
[]
+5.9 +0.1 66 +3 +3 1013.0 978.7 +0.6 +6.2
21 13.10 З 5 16 км 9/9 600 м
[]
+6.0 +1.0 70 +2 +2 1014.0 979.6
00 14.10 Ю 2 16 км {осадки} 10/10 600 м
[]
+4.1 +2.3 88 +1 +1 1016.0 981.4 +0.6 +7.5 0.3
03 14.10 Ю 2 16 км 10/10 1000 м
[]
+2.5 +1.7 94 -0 -0 1017.1 982.6
06 14.10 Ю 2 16 км ясно +0.2 -0.5 95 -4 -4 1018.2 983.6 0.0 +7.5 7
09 14.10 ЮВ 2 16 км ясно -0.5 -0.8 98 -5 -5 1018.5 983.9
12 14.10 Ю 3 16 км 10/10 1000 м
[]
+2.7 +1.5 92 -2 -2 1019.0 984.4 -1.8 +7.5
15 14.10 Ю 5 16 км 3/0
[]
+10.6 +4.1 64 +8 +10 1019.8 985.4
18 14.10 ЮЗ 4 16 км 5/5 1000 м
[]
+12.1 +3.7 56 +11 +13 1018.9 984.5 -1.8 +12.9
21 14.10 З 2 16 км 9/0
[]
+12.4 +3.1 53 +12 +13 1018.2 983.8
00 15.10 Ю 1 16 км ясно +5.5 +4.6 94 +5 +5 1018.4 983.9 -1.8 +13.9
03 15.10 Ю 2 16 км 5/0
[]
+4.4 +3.7 95 +1 +1 1018.1 983.8
06 15.10 ЮВ 2 9000 м дымка ясно +2.7 +2.6 99 -1 -1 1016.4 982.2 -1.8 +13.9 16
09 15.10 ЮВ 3 11 км 10/0
[]
+6.0 +5.3 95 +3 +3 1013.8 979.8
12 15.10 ЮВ 2 16 км 10/0 2000 м
[]
+6.8 +6.1 95 +4 +4 1010.9 976.8 +1.9 +13.9
21 15.10 З 7 16 км слаб. дождь 10/10 300 м
[]
+5.7 +4.0 89 0 0 1008.7 974.6
00 16.10 З 7 4800 м осадки 10/10 300 м
[]
+2.5 +1.4 92 -4 -4 1012.3 978.0 3
03 16.10 З 5 16 км {осадки} 10/10 300 м
[]
+3.3 +2.0 91 -2 -2 1014.9 980.4
06 16.10 З 5 16 км {осадки} 9/9 600 м
[]
+3.9 +0.4 78 -1 -1 1016.7 982.2 2 11
09 16.10 СЗ 2 16 км 10/10 1000 м
[]
+2.8 -0.6 78 -0 -0 1017.6 983.1
12 16.10 ЮЗ 3 12 км слаб. дождь 10/10 300 м
[]
+2.6 +1.8 94 -2 -2 1018.0 983.4 +0.5 0.5
15 16.10 ЮЗ 5 16 км {осадки} 10/10 600 м
[]
+4.3 +1.4 81 -1 -1 1017.3 982.8
18 16.10 ЮЗ 6 16 км 10/10 1000 м
[]
+7.1 -0.6 58 +3 +3 1014.4 980.1 +7.4 1
21 16.10 ЮЗ 3 16 км 10/10 1500 м
[]
+8.3 +0.4 57 +6 +6 1012.0 977.8
00 17.10 Ю 3 16 км 5/5 1500 м
[]
+3.2 +0.3 81 -0 -0 1011.2 976.8 +0.5 +9.2
03 17.10 Ю 4 16 км 9/0 2000 м
[]
+5.5 +0.1 68 +2 +2 1009.7 975.5
06 17.10 З 3 16 км {осадки} 10/10 300 м
[]
+6.1 +4.9 92 +3 +3 1009.3 975.2 +0.5 +9.2 2 191
09 17.10 ЮЗ 2 16 км слаб. дождь {осадки} 10/10 300 м
[]
+4.1 +3.1 93 +1 +1 1009.6 975.5
12 17.10 З 4 16 км слаб. дождь {осадки} 10/10 1000 м
[]
+3.9 +0.6 79 -0 -0 1010.4 976.1 +3.2 +9.2 1
15 17.10 З 6 16 км 9/9 1000 м
[]
+4.4 -2.1 63 -1 -0 1012.1 977.8
18 17.10 З 8 16 км 10/10 1500 м
[]
+5.6 -5.4 45 +1 +1 1013.2 979.0 +3.2 +7.1
21 17.10 З 9 16 км 9/9 1500 м
[]
+4.6 -7.5 41 -1 -1 1015.7 981.3
00 18.10 СЗ 8 16 км 5/0 2000 м
[]
+2.4 -10.6 38 -3 -3 1019.4 984.8 +2.3 +7.1

 

Местоположение метеостанции Muskoka Awos (Канада): широта 44.97 долгота -79.30 высота над уровнем моря 282 м.

В архиве по умолчанию представлена погода в Muskoka Awos за последнюю неделю. Архивные данные за месяц целиком и за предыдущие месяцы, начиная с января 2011 года, Вы можете получить, выбрав интересующий диапазон дат из раскрывающегося списка и нажав кнопку "Ввод!".


*Определитесь, кто Вы:
робот инопланетянин человек

Внимание! Время в таблицах - всемирное. Для получения местного времени необходимо прибавить поправку, которая в Muskoka Awos равна -5 ч.

Смотрите также архив погоды в соседних городах и на ближайших метеорологических станциях:

Погода в Beatrice Climate (Канада) (15 км)
Погода в Beausoleil Isl (aut) (Канада) (46 км)
Погода в Lagoon City (Канада) (49 км)
Погода в Barrie-oro (Канада) (59 км)
Погода в Parry Sound (Канада) (70 км)
Погода в Barrie (Канада) (76 км)
Погода в Wester Island (Канада) (84 км)
Погода в Collingwood (Канада) (89 км)
Погода в Egbert (Канада) (91 км)
Погода в Borden (Канада) (94 км)

Пояснения к столбцам:

Ветер - указаны скорость ветра в м/с - средняя за 10 мин, порывы в срок и между сроками (в фигурных скобках) и направление, откуда дует ветер: С - северный, СВ - северо-восточный, В - восточный, ЮВ - юго-восточный, Ю - южный, ЮЗ - юго-западный, З - западный, СЗ - северо-западный.
Видимость - горизонтальная дальность видимости в метрах или километрах. При видимости от 1 до 10 км при отсутствии осадков обычно наблюдается дымка, при ухудшении видимости до 1 км и менее - туман. В сухую погоду видимость может ухудшаться дымом, пылью или мглою.
Явления - указаны атмосферные явления, наблюдавшиеся в срок или в последний час перед сроком; фигурными скобками обозначены явления, наблюдавшиеся между сроками (за 1-3 часа до срока); квадратными скобками обозначены град или гололедные отложения с указанием их диаметра в мм.
Облачность - указаны через наклонную черту общая и нижняя облачность в баллах и высота нижней границы облаков в метрах; квадратными скобками обозначены формы облаков: Ci - перистые, Cs - перисто-слоистые, Cc - перисто-кучевые, Ac - высококучевые, As - высокослоистые, Sc - слоисто-кучевые, Ns - слоисто-дождевые, Cu - кучевые, Cb - кучево-дождевые. Подробнее классификацию облаков см. в Атласе облаков (PDF).
T - Температура воздуха - температура, измеренная на высоте 2 м над землей.
Td - Температура точки росы - температура, при понижении до которой содержащийся в воздухе водяной пар достигнет насыщения.
f - Относительная влажность воздуха - влажноcть воздуха, измеренная на высоте 2 м над землей.
Te - Эффективная температура - температура, которую ощущает одетый по сезону человек в тени. Характеристика душности погоды. При расчете учитывается влияние влажности воздуха и скорости ветра на теплоощущения человека.
Tes - Эффективная температура на солнце - температура, которую ощущает человек, с поправкой на солнечный нагрев. Характеристика знойности погоды. Зависит от высоты солнца над горизонтом, облачности и скорости ветра. Ночью, в пасмурную погоду, а также при ветре 12 м/с и более поправка равна нулю.
P - Атмосферное давление - приведенное к уровню моря атмосферное давление.
Po - Атмосферное давление - измеренное на уровне метеостанции атмосферное давление.
Tmin - Минимальная температура - минимум температуры воздуха на высоте 2 м над землей.
Tmax - Максимальная температура - максимум температуры воздуха на высоте 2 м над землей.
R - Количество осадков - Количество выпавших осадков за период времени, мм. При наведении курсора мыши на число - период времени, за который выпало указанное количество осадков.
R24 - Количество осадков - Количество выпавших осадков за 24 часа, мм.
S - Снежный покров - Высота снежного покрова, см. При наведении курсора мыши на число - состояние снежного покрова и степень покрытия местности в баллах.